Terminal Aerodrome Forecast
Issued by NWS Mobile, AL

Home | Current Version | Previous Version | Text Only | Print | Product List | Glossary On
Versions: 1 2 3 4 5 6 7 8 9 10 11 12 13 14 15 16 17 18 19 20 21 22 23 24 25 26 27 28 29 30 31 32 33
000
FTUS44 KMOB 021739
TAFMOB
TAF
KMOB 021739Z 0218/0318 20007KT P6SM FEW019
     FM030000 19006KT P6SM SCT040 SCT100
     FM030200 19003KT P6SM BKN250
     FM031300 22002KT P6SM VCTS BKN015CB BKN250=

USA.gov is the U.S. government's official web portal to all federal, state and local government web resources and services.